Starlink 33904

operational
NORAD ID: 63887 Int'l Des: 2025-094 Owner: SPXS Country: US Constellation: starlink
LEOCIRCULAR

Über Starlink 33904

Beschreibung wird geladen...

Live-Position

3D-Globus wird geladen...

Nächste Überflüge

Höhenverlauf

Altitude vs Time

uPlot chart will show altitude changes over time

Zweizeiliger Elementsatz

1 63887U 25094Z 26062.52560265 .00004354 00000-0 37239-3 0 9992
2 63887 69.9986 249.8426 0002996 268.5706 91.5110 14.98338226 46289
Epoch: 3. März 2026 • Age: 31 hours

Aktueller Status

Höhe 577.7 km
Geschwindigkeit 7.57 km/s
Subsatellitenpunkt -18.16°S, 165.78°E
Startdatum 10. Mai 2025
Alter 0.8 years
Typ internet

Technische Details

Klassifizierung Payload
Masse 575.00 kg
Trockenmasse 530.00 kg
Gesamtmasse 575.00 kg
Länge 0.30 m
Durchmesser 4.10 m
Spannweite 29.00 m
Form Box + pan
Hersteller SPXS
Bus-Typ Starlink V2MO
Phasenstatus In Orbit
Besitzer/Staat SPXS/US

Große Konstellationen

Loading constellations...